Theta_e
315 316 316 316 317 318 318 318 318 318 319 320 319 320 319 319 319 317 316 316 316 316 317 317 318 317 316 316 315 314 313 311 310 309 306 305 304 304 304 304 304 303
314 314 314 315 316 316 316 317 318 317 318 319 318 318 318 317 317 317 316 315 314 314 314 315 316 316 316 315 314 313 312 312 311 310 308 306 305 304 304 305 305 304
313 313 313 312 314 315 315 316 315 315 316 316 317 316 316 315 315 314 314 315 315 314 314 314 314 314 314 314 314 312 311 311 309 310 308 307 306 304 304 305 304 303
311 312 312 312 313 313 314 313 313 313 313 313 313 314 313 313 313 312 312 309 311 312 313 313 313 313 313 313 313 312 312 311 311 309 308 307 307 306 305 305 304 303
310 309 310 310 310 311 311 310 310 311 311 311 312 312 311 310 310 310 310 310 310 310 311 311 311 311 311 311 311 310 310 309 310 310 308 307 307 306 306 305 305 304
307 307 307 307 308 308 309 309 309 310 310 310 310 310 310 309 309 309 309 308 309 309 309 309 309 309 310 309 309 308 308 308 308 308 307 306 306 306 306 305 304 303
306 306 306 306 306 307 307 307 308 308 308 309 309 308 309 308 308 308 308 308 308 307 307 308 308 308 309 308 308 308 308 308 309 309 307 306 305 304 304 304 303 302
304 304 304 304 304 305 305 305 306 306 307 306 305 306 307 306 307 307 307 307 307 307 307 307 307 307 308 308 307 307 306 307 307 307 307 306 303 300 301 301 300 299
302 302 302 301 301 303 303 303 303 304 304 303 304 305 305 305 305 306 305 305 305 305 305 306 306 306 307 306 306 306 305 305 305 304 303 302 300 299 299 300 299 298
301 300 299 300 300 301 301 301 301 301 300 301 301 302 302 303 303 303 303 302 301 301 302 303 303 303 303 304 304 304 303 302 302 301 301 301 300 300 299 299 298 298
300 300 300 300 300 300 300 300 300 300 300 299 299 300 301 301 300 300 299 299 299 299 300 300 300 301 302 302 302 303 302 302 301 301 300 300 300 300 296 299 298 298
299 299 299 298 298 299 299 299 299 299 299 299 299 299 299 300 299 298 298 297 297 298 298 299 300 300 300 301 301 301 301 300 300 300 300 300 299 299 299 299 299 299
298 297 297 298 298 298 298 298 298 298 297 297 298 297 297 298 299 298 298 297 297 297 298 298 298 299 299 300 300 300 300 299 298 298 298 298 298 298 299 299 299 299
297 296 296 296 296 297 297 297 297 297 297 297 296 296 296 297 297 298 298 298 297 297 298 298 298 298 298 298 299 299 298 297 298 297 296 296 297 297 298 298 298 298
295 295 295 295 295 295 295 295 296 296 295 295 295 295 296 296 296 296 296 296 297 297 297 297 296 296 297 297 297 298 298 297 297 297 296 296 296 296 296 297 297 297
294 294 294 294 294 294 294 294 294 294 294 294 294 294 295 295 295 295 295 295 295 296 296 296 296 296 292 291 293 295 297 297 297 296 296 296 295 295 295 296 296 296
293 293 293 293 293 293 293 292 292 292 291 292 292 293 293 293 293 294 294 295 295 295 295 295 295 295 291 293 293 293 294 295 295 295 296 295 295 294 294 295 296 296
292 292 292 292 291 291 291 289 289 289 290 290 290 291 292 292 292 293 293 294 294 294 294 295 295 292 292 293 293 293 292 294 295 294 295 295 294 294 294 294 295 295
291 291 291 291 291 289 289 289 289 289 289 289 289 289 290 291 289 292 292 293 293 293 293 294 294 292 292 292 292 292 293 292 294 294 294 294 294 294 294 294 294 294
290 289 289 290 289 289 289 289 289 289 289 290 290 289 289 290 290 290 290 291 292 292 292 293 293 291 292 292 291 292 292 292 294 294 294 294 294 294 294 294 294 294
289 289 289 289 289 288 288 288 288 288 288 289 289 289 289 289 290 289 289 288 289 290 290 291 292 291 291 291 291 291 292 292 293 293 293 293 294 294 294 294 294 294
288 288 287 287 287 287 287 287 287 287 287 288 288 289 289 289 289 289 288 288 289 288 289 289 290 290 290 290 291 291 292 291 291 291 291 291 291 293 293 294 294 293
287 287 286 286 286 286 286 286 286 286 287 288 287 287 288 288 288 288 288 288 287 287 287 288 289 289 290 290 290 291 291 290 290 290 290 290 290 291 292 293 293 293
287 286 285 285 285 285 285 285 286 286 287 287 286 286 286 287 287 288 288 288 287 287 287 287 287 288 288 289 289 290 289 288 289 289 289 289 289 290 291 291 292 288
286 285 285 284 284 284 285 284 285 285 286 286 286 286 286 287 287 287 287 287 287 286 286 286 286 286 287 288 288 289 289 288 289 289 288 288 289 289 290 291 291 289
285 284 284 283 283 284 284 284 285 285 285 285 285 286 286 287 286 286 285 286 286 286 286 286 286 286 287 288 288 288 289 288 289 288 288 288 288 289 289 289 290 290
Wind_Speed
7 6 7 7 7 8 8 9 8 9 9 9 10 10 9 9 9 10 9 9 9 9 9 9 8 8 7 8 9 10 10 10 8 8 9 10 12 11 13 11 11 10
7 7 6 6 7 7 8 8 9 9 10 10 9 7 6 5 5 7 9 9 9 10 10 10 10 10 9 8 8 9 8 8 10 6 9 12 9 9 13 14 13 11
5 6 7 8 8 8 9 8 8 8 9 10 8 6 6 5 6 6 6 8 10 10 10 10 11 11 11 10 8 8 8 9 10 8 9 11 9 9 10 10 8 13
5 5 5 6 6 6 6 7 7 7 8 9 9 6 5 4 5 6 6 7 7 7 7 8 9 10 10 11 11 11 12 10 8 7 9 9 9 9 9 6 8 9
4 4 4 4 4 5 5 6 7 6 7 8 8 6 6 5 5 6 6 6 6 7 7 8 8 9 10 10 11 11 11 10 10 10 10 10 9 9 9 8 10 13
3 3 4 4 4 4 4 5 5 6 7 8 9 7 6 5 6 6 6 7 6 7 7 7 8 8 10 11 10 11 10 10 10 11 12 12 9 7 8 9 11 13
3 3 4 3 4 4 5 5 5 6 6 7 7 8 8 9 9 7 6 7 7 7 8 7 8 9 11 10 11 12 11 11 11 13 13 13 10 11 9 9 10 12
2 2 3 3 4 4 5 5 5 5 6 7 7 8 7 8 9 8 8 9 10 11 11 11 12 12 11 10 11 11 11 9 11 13 14 10 8 10 9 9 9 10
1 1 1 3 3 4 4 4 4 5 6 6 7 7 7 7 8 8 8 9 9 10 10 10 11 11 10 11 12 12 12 11 11 11 11 9 10 10 10 9 10 11
1 0 1 2 3 3 3 3 3 4 4 5 7 6 7 7 7 8 8 8 8 9 9 10 10 10 10 10 12 12 12 12 11 11 10 10 11 11 10 10 11 11
4 3 3 3 3 3 4 3 3 3 2 3 4 6 6 6 6 6 7 8 8 9 9 10 10 10 11 12 12 11 12 12 11 11 11 10 10 11 10 11 11 12
5 5 5 5 5 5 5 5 4 4 4 3 3 5 5 6 6 6 6 7 8 9 9 9 10 10 11 12 12 12 11 11 11 12 12 12 10 11 11 10 12 11
5 5 5 5 5 5 5 5 5 5 4 4 4 4 5 6 6 7 7 7 8 8 9 9 10 10 10 11 11 11 12 12 11 11 11 10 8 9 10 11 12 12
5 5 5 5 5 5 5 5 5 5 5 4 4 5 5 6 6 7 7 7 7 8 8 8 9 10 10 10 10 11 10 10 10 10 9 8 10 9 10 12 12 12
4 4 4 4 4 4 4 4 4 4 4 4 4 4 4 5 6 7 7 7 8 8 8 8 9 9 8 8 9 10 10 11 11 11 11 9 10 11 11 12 12 12
3 4 4 4 4 4 5 4 4 4 4 4 4 4 5 5 5 5 6 7 7 7 8 7 8 8 8 10 11 10 10 10 10 10 10 10 10 10 11 12 13 12
3 4 3 4 4 4 5 5 5 3 3 3 4 4 5 4 4 5 5 5 6 7 8 8 8 8 9 10 11 13 11 11 11 11 11 11 10 10 11 11 11 13
4 4 4 4 4 5 5 3 3 3 3 2 2 3 3 3 4 5 5 5 5 6 7 7 7 7 10 12 13 13 12 11 10 10 10 11 10 10 10 10 12 12
4 4 4 4 5 5 3 3 2 2 3 3 3 3 3 2 3 5 5 5 5 7 7 8 8 8 10 12 13 13 13 12 10 11 11 11 12 12 12 12 11 11
6 5 5 6 5 4 4 4 4 4 5 4 4 3 3 4 3 4 3 5 5 6 7 8 8 8 10 12 13 14 13 12 10 11 12 13 14 14 13 13 13 12
7 6 7 6 6 5 5 4 5 5 5 5 5 5 5 5 5 5 5 4 4 5 6 8 7 9 11 11 12 13 13 12 11 10 11 13 13 14 15 15 14 13
6 6 5 5 5 5 5 5 5 5 6 5 5 4 4 4 4 4 5 6 5 5 6 7 7 9 11 11 13 13 14 9 8 9 10 11 12 14 14 13 13 13
6 6 5 5 5 5 5 5 5 5 5 4 5 5 5 5 5 5 5 5 7 6 6 8 7 8 10 11 12 13 10 7 7 8 10 9 10 9 11 12 12 14
5 4 5 5 4 5 5 5 5 4 4 4 5 6 6 5 5 6 5 4 6 8 6 8 10 9 11 13 13 13 11 8 7 8 9 9 10 10 9 10 12 14
4 4 5 5 5 5 5 6 6 5 5 4 4 5 6 5 5 6 6 5 4 8 9 9 11 12 11 12 13 14 11 7 8 7 9 9 9 10 8 8 10 11
4 4 5 6 7 6 6 6 6 6 6 7 6 6 7 7 6 6 8 8 5 8 9 7 8 11 9 11 13 14 15 9 7 8 9 10 8 10 10 9 9 9
Wind_Direction
229 232 240 242 244 246 248 247 245 246 246 246 249 250 243 241 233 232 234 236 234 235 237 237 235 227 216 212 211 217 219 216 214 200 202 209 220 215 227 222 216 221
224 229 236 242 246 245 249 253 256 255 256 253 251 249 240 233 221 225 237 236 232 232 233 237 240 242 237 226 216 218 221 218 220 198 213 217 220 206 221 218 217 216
220 225 232 238 243 249 254 258 259 262 262 264 259 247 249 236 238 224 227 236 242 239 231 229 233 236 239 238 229 223 225 224 225 212 218 224 220 218 226 221 221 224
227 229 236 241 246 255 258 262 260 260 263 264 257 250 247 251 247 243 234 228 234 236 230 227 227 232 235 238 239 241 239 233 226 211 220 227 226 227 228 206 226 225
243 240 243 251 256 256 261 260 260 257 260 266 267 251 249 249 244 248 247 238 232 238 236 233 229 230 237 237 236 241 242 243 239 234 234 235 234 230 238 229 233 240
259 257 261 259 260 263 262 261 268 273 275 274 272 275 265 253 250 246 246 248 247 242 243 242 238 232 236 233 230 233 238 241 240 235 239 240 241 236 241 233 236 238
287 285 280 274 273 266 268 269 273 274 274 277 284 274 275 271 267 260 256 252 250 249 247 246 246 243 241 237 236 239 236 236 240 240 237 244 247 252 248 246 239 236
264 282 284 289 281 273 266 269 268 271 279 279 272 276 271 267 267 269 265 264 262 260 259 257 257 254 249 245 246 246 241 237 241 242 247 240 228 242 240 236 238 244
234 250 263 256 261 262 260 263 270 278 283 275 277 280 277 269 271 266 262 260 259 259 260 259 256 257 256 253 252 251 248 243 238 238 240 240 237 238 237 234 236 237
117 121 215 229 247 251 256 261 265 267 270 278 283 283 278 274 269 270 267 264 261 259 257 256 255 253 252 251 252 253 252 249 243 239 239 238 239 241 238 234 236 240
27 18 359 344 329 327 318 318 307 299 284 274 278 283 285 284 277 266 261 256 253 253 257 256 256 257 257 254 253 253 252 251 249 245 240 238 238 241 240 238 238 239
10 2 358 345 338 333 332 330 324 313 310 298 278 279 284 283 274 269 258 257 258 260 261 263 261 258 257 259 260 259 255 251 250 248 246 242 238 241 241 237 240 239
359 355 347 342 343 339 332 326 324 320 312 304 299 288 287 283 280 276 270 263 264 263 259 258 259 257 258 261 264 265 263 261 256 254 253 252 247 245 246 247 245 245
357 348 346 344 339 336 331 327 323 317 311 305 299 291 282 282 285 283 282 272 268 267 266 265 263 263 263 264 265 265 264 258 256 254 248 245 250 244 247 249 248 248
349 348 343 342 338 332 328 325 317 309 302 296 288 278 275 275 282 284 281 277 272 269 271 269 266 264 262 260 263 264 265 267 264 260 257 252 250 252 249 248 249 247
355 357 352 349 351 345 340 330 318 312 301 292 285 278 274 270 268 269 273 275 280 278 274 269 267 266 256 250 254 265 274 274 272 263 257 255 253 253 250 248 249 248
16 10 358 6 0 345 342 334 325 317 305 294 289 284 280 276 270 270 266 265 275 282 283 277 271 269 258 256 258 255 258 268 269 269 264 259 252 253 257 254 252 252
20 11 10 4 0 353 340 330 311 302 302 303 300 297 293 290 280 275 277 275 271 274 274 271 271 265 264 268 267 265 258 263 268 267 264 262 257 253 256 255 258 259
18 14 7 6 1 345 334 321 323 313 320 320 322 319 296 287 285 283 280 280 273 273 273 271 271 268 270 271 272 269 265 260 268 266 266 263 259 255 255 257 258 261
11 6 5 359 351 347 346 344 347 348 342 329 321 325 321 313 308 292 289 285 282 281 281 280 273 276 273 274 274 274 272 267 268 268 267 267 265 263 262 260 257 257
6 2 356 348 346 346 341 344 341 332 335 335 333 329 324 324 322 319 309 298 285 279 282 280 274 279 277 269 266 270 269 268 272 269 267 267 265 263 263 263 265 263
357 353 347 342 340 338 335 334 335 326 324 321 315 308 293 285 282 267 280 288 282 281 282 276 275 280 276 272 269 271 273 272 269 267 267 266 266 265 263 264 264 260
350 344 334 333 329 326 323 320 317 314 303 309 296 287 288 282 276 275 277 284 287 282 276 280 277 281 279 272 272 271 274 274 271 270 269 263 261 260 259 260 257 256
337 331 320 315 311 305 303 302 298 290 294 307 302 301 296 288 293 291 277 266 284 284 275 282 285 284 280 278 274 270 268 272 272 271 270 267 270 265 263 262 257 245
328 324 314 309 304 307 311 308 313 314 302 302 298 296 286 294 300 299 296 287 271 282 281 272 277 283 274 264 265 265 266 265 267 269 271 266 268 273 268 260 257 249
324 317 318 324 320 317 321 319 317 316 322 322 314 311 311 311 308 304 299 292 282 286 284 267 273 281 274 254 262 259 256 259 266 267 264 269 268 272 277 273 265 259